ELY382 LIMC-LLBG

Flight info

Callsign ELY382
Flight time N/A
Altitude 33000
Route ROBAS DCT IBNAN DCT IPDAB DCT LUMAV DCT NIKOL DCT AMUGO DCT VAKSU DCT PINDO/N0445F350 DCT NEVRA DCT AKINA DCT VANZA DCT PIKOG L609 ZUKKO
Aircraft B738/M-SDE2E3FGHIJ1LORVWXY/LB1

Departure

Time 2026-04-30 11:16
Airport Milan Malpensa International Airport (LIMC)

Arrival

Time N/A
Airport Ben Gurion International Airport (LLBG)
Time Latitude Longitude Altitude Speed Heading
2026-04-30 11:15 45.61691 8.73717 744 ft 6 kts 350°
2026-04-30 11:15 45.61772 8.73695 743 ft 34 kts 348°
2026-04-30 11:16 45.62229 8.73568 743 ft 100 kts 349°
2026-04-30 11:16 45.63115 8.73324 743 ft 157 kts 350°
2026-04-30 11:16 45.64287 8.73008 1125 ft 176 kts 348°
2026-04-30 11:16 45.65482 8.72620 1896 ft 179 kts 348°
2026-04-30 11:17 45.66610 8.71811 2540 ft 190 kts 315°
2026-04-30 11:17 45.67258 8.70041 2821 ft 216 kts 278°
2026-04-30 11:17 45.67083 8.67841 2992 ft 235 kts 244°
2026-04-30 11:17 45.66041 8.66028 3435 ft 243 kts 212°
2026-04-30 11:18 45.64416 8.65176 3737 ft 258 kts 180°
2026-04-30 11:18 45.61350 8.67320 5264 ft 256 kts 125°
2026-04-30 11:18 45.60391 8.69467 6004 ft 261 kts 119°
2026-04-30 11:19 45.59496 8.71766 6702 ft 267 kts 118°
2026-04-30 11:19 45.58594 8.74145 7264 ft 276 kts 118°
2026-04-30 11:19 45.57674 8.76565 7984 ft 279 kts 117°
2026-04-30 11:19 45.56737 8.79016 8671 ft 283 kts 118°
2026-04-30 11:20 45.55779 8.81497 9366 ft 288 kts 118°
2026-04-30 11:20 45.54800 8.84019 10045 ft 292 kts 118°
2026-04-30 11:20 45.53798 8.86586 10579 ft 302 kts 117°
2026-04-30 11:20 45.52738 8.89296 10758 ft 323 kts 118°
2026-04-30 11:21 45.51604 8.92184 10973 ft 342 kts 118°
2026-04-30 11:21 45.50421 8.95188 11435 ft 352 kts 118°
2026-04-30 11:21 45.49213 8.98244 12077 ft 355 kts 117°
2026-04-30 11:21 45.47998 9.01317 12749 ft 359 kts 117°
2026-04-30 11:22 45.46761 9.04438 13345 ft 364 kts 117°
2026-04-30 11:22 45.45511 9.07586 14029 ft 367 kts 117°
2026-04-30 11:22 45.44247 9.10767 14650 ft 370 kts 117°
2026-04-30 11:22 45.42976 9.13962 15252 ft 373 kts 117°
2026-04-30 11:23 45.41711 9.17140 15848 ft 375 kts 117°
2026-04-30 11:23 45.40417 9.20386 16408 ft 379 kts 117°
2026-04-30 11:23 45.37787 9.26974 17508 ft 386 kts 117°
2026-04-30 11:24 45.36456 9.30301 18090 ft 389 kts 117°
2026-04-30 11:24 45.35111 9.33659 18654 ft 392 kts 117°
2026-04-30 11:24 45.33755 9.37041 19137 ft 395 kts 117°
2026-04-30 11:25 45.31011 9.43871 20049 ft 401 kts 117°
2026-04-30 11:25 45.29623 9.47321 20515 ft 404 kts 117°
2026-04-30 11:25 45.26813 9.54292 21468 ft 409 kts 117°
2026-04-30 11:26 45.23959 9.61354 22369 ft 416 kts 117°
2026-04-30 11:26 45.22514 9.64924 22809 ft 419 kts 117°
2026-04-30 11:26 45.21058 9.68517 23262 ft 422 kts 117°
2026-04-30 11:27 45.19639 9.72172 23642 ft 424 kts 112°
2026-04-30 11:27 45.18605 9.76076 24015 ft 423 kts 102°
2026-04-30 11:27 45.17839 9.80098 24388 ft 424 kts 102°
2026-04-30 11:27 45.17089 9.84157 24727 ft 427 kts 102°
2026-04-30 11:28 45.15539 9.92344 25380 ft 433 kts 102°
2026-04-30 11:28 45.14735 9.96467 25711 ft 435 kts 102°
2026-04-30 11:28 45.13920 10.00610 26029 ft 438 kts 103°
2026-04-30 11:29 45.13095 10.04793 26222 ft 444 kts 103°
2026-04-30 11:29 45.12256 10.09028 26478 ft 448 kts 103°
2026-04-30 11:29 45.10493 10.17524 27173 ft 451 kts 104°
2026-04-30 11:30 45.08675 10.26088 27720 ft 457 kts 104°
2026-04-30 11:30 45.07758 10.30408 27999 ft 460 kts 104°
2026-04-30 11:30 45.06839 10.34741 28279 ft 462 kts 104°
2026-04-30 11:31 45.05914 10.39104 28556 ft 464 kts 104°
2026-04-30 11:31 45.04984 10.43484 28850 ft 466 kts 104°
2026-04-30 11:31 45.04060 10.47830 29097 ft 469 kts 104°
2026-04-30 11:31 45.03117 10.52256 29353 ft 471 kts 104°
2026-04-30 11:32 45.02168 10.56702 29601 ft 474 kts 104°
2026-04-30 11:32 45.01213 10.61166 29871 ft 475 kts 104°
2026-04-30 11:32 45.00254 10.65636 30212 ft 475 kts 104°
2026-04-30 11:33 44.98336 10.74545 30862 ft 473 kts 104°
2026-04-30 11:33 44.97377 10.78998 31091 ft 475 kts 104°
2026-04-30 11:33 44.96410 10.83471 31282 ft 477 kts 104°
2026-04-30 11:33 44.95461 10.87953 31569 ft 476 kts 103°
2026-04-30 11:34 44.94591 10.92447 31886 ft 474 kts 102°
2026-04-30 11:34 44.93759 10.96943 32161 ft 473 kts 102°
2026-04-30 11:34 44.92935 11.01441 32405 ft 474 kts 102°
2026-04-30 11:34 44.92106 11.05933 32613 ft 475 kts 102°
2026-04-30 11:35 44.91263 11.10441 32820 ft 476 kts 102°
2026-04-30 11:35 44.90409 11.14952 33080 ft 475 kts 103°
2026-04-30 11:35 44.89551 11.19449 33305 ft 475 kts 103°
2026-04-30 11:35 44.88686 11.23969 33273 ft 479 kts 103°
2026-04-30 11:36 44.86942 11.33028 33279 ft 478 kts 103°
2026-04-30 11:36 44.85208 11.42003 33279 ft 473 kts 103°
2026-04-30 11:37 44.83478 11.50933 33280 ft 472 kts 103°
2026-04-30 11:37 44.81743 11.59843 33288 ft 472 kts 103°
2026-04-30 11:38 44.79646 11.68615 33297 ft 473 kts 109°
2026-04-30 11:38 44.77197 11.77234 33267 ft 475 kts 110°
2026-04-30 11:39 44.74728 11.85875 33295 ft 477 kts 110°
2026-04-30 11:39 44.72283 11.94595 33304 ft 481 kts 110°
2026-04-30 11:40 44.69837 12.03378 33308 ft 484 kts 109°
2026-04-30 11:40 44.67376 12.12200 33304 ft 487 kts 110°
2026-04-30 11:41 44.64893 12.21064 33308 ft 489 kts 110°
2026-04-30 11:41 44.62391 12.29957 33301 ft 490 kts 110°
2026-04-30 11:42 44.59882 12.38839 33294 ft 489 kts 110°
2026-04-30 11:42 44.57373 12.47687 33295 ft 488 kts 110°
2026-04-30 11:43 44.54862 12.56514 33301 ft 487 kts 110°
2026-04-30 11:43 44.52368 12.65253 33295 ft 485 kts 110°
2026-04-30 11:44 44.49859 12.74012 33284 ft 483 kts 110°
2026-04-30 11:44 44.47352 12.82732 33287 ft 482 kts 110°
2026-04-30 11:45 44.44847 12.91418 33276 ft 482 kts 110°
2026-04-30 11:45 44.42312 13.00174 33289 ft 490 kts 111°
2026-04-30 11:46 44.39738 13.09037 33279 ft 493 kts 111°
2026-04-30 11:46 44.37150 13.17913 33267 ft 493 kts 111°
2026-04-30 11:47 44.34552 13.26792 33264 ft 494 kts 111°
2026-04-30 11:47 44.31949 13.35657 33257 ft 493 kts 111°
2026-04-30 11:48 44.29348 13.44485 33251 ft 491 kts 111°
2026-04-30 11:48 44.26746 13.53287 33273 ft 490 kts 111°
2026-04-30 11:49 44.24145 13.62060 33258 ft 489 kts 111°
2026-04-30 11:49 44.21456 13.70759 33246 ft 489 kts 116°
2026-04-30 11:50 44.18175 13.79040 33254 ft 488 kts 120°
2026-04-30 11:50 44.14761 13.87205 33268 ft 488 kts 120°
2026-04-30 11:51 44.11374 13.95399 33247 ft 489 kts 119°
2026-04-30 11:51 44.08015 14.03628 33258 ft 490 kts 119°
2026-04-30 11:52 44.04665 14.11854 33250 ft 493 kts 119°
2026-04-30 11:52 44.01282 14.20143 33245 ft 495 kts 119°
2026-04-30 11:53 43.97872 14.28465 33253 ft 497 kts 119°
2026-04-30 11:53 43.94442 14.36809 33246 ft 498 kts 120°
2026-04-30 11:54 43.90997 14.45162 33230 ft 499 kts 120°
2026-04-30 11:54 43.87544 14.53510 33240 ft 499 kts 120°
2026-04-30 11:55 43.84674 14.60433 33231 ft 499 kts 120°
2026-04-30 11:55 43.81212 14.68758 33221 ft 498 kts 120°
2026-04-30 11:56 43.77759 14.77040 33235 ft 497 kts 120°
2026-04-30 11:56 43.74304 14.85302 33234 ft 495 kts 120°
2026-04-30 11:57 43.70850 14.93538 33236 ft 495 kts 120°
2026-04-30 11:57 43.67394 15.01754 33222 ft 494 kts 120°
2026-04-30 11:58 43.63937 15.09952 33211 ft 494 kts 120°
2026-04-30 11:58 43.60477 15.18131 33212 ft 493 kts 120°
2026-04-30 11:59 43.57018 15.26287 33203 ft 493 kts 120°
2026-04-30 11:59 43.53544 15.34453 33204 ft 495 kts 121°
2026-04-30 12:00 43.50053 15.42638 33199 ft 496 kts 121°
2026-04-30 12:00 43.46543 15.50842 33185 ft 498 kts 121°
2026-04-30 12:01 43.43038 15.59012 33191 ft 500 kts 121°
2026-04-30 12:01 43.39493 15.67252 33188 ft 501 kts 121°
2026-04-30 12:02 43.35933 15.75503 33173 ft 502 kts 121°
2026-04-30 12:02 43.32367 15.83745 33164 ft 502 kts 121°
2026-04-30 12:03 43.27022 15.96057 33154 ft 500 kts 122°
2026-04-30 12:04 43.23455 16.04243 33166 ft 500 kts 122°
2026-04-30 12:04 43.19882 16.12418 33152 ft 500 kts 122°
2026-04-30 12:05 43.16307 16.20579 33153 ft 499 kts 122°
2026-04-30 12:05 43.12726 16.28727 33152 ft 499 kts 122°
2026-04-30 12:06 43.09141 16.36865 33166 ft 499 kts 122°
2026-04-30 12:06 43.05553 16.44986 33153 ft 499 kts 122°
2026-04-30 12:07 43.01954 16.53109 33145 ft 499 kts 122°
2026-04-30 12:07 42.98350 16.61221 33158 ft 499 kts 123°
2026-04-30 12:08 42.94731 16.69342 33154 ft 501 kts 123°
2026-04-30 12:08 42.91088 16.77496 33153 ft 504 kts 123°
2026-04-30 12:09 42.87424 16.85675 33147 ft 506 kts 123°
2026-04-30 12:09 42.83744 16.93866 33133 ft 507 kts 123°
2026-04-30 12:10 42.80053 17.02061 33135 ft 507 kts 123°
2026-04-30 12:10 42.76380 17.10193 33131 ft 508 kts 124°
2026-04-30 12:11 42.72676 17.18369 33138 ft 507 kts 124°
2026-04-30 12:11 42.68969 17.26532 33129 ft 507 kts 124°
2026-04-30 12:12 42.65255 17.34685 33129 ft 507 kts 124°
2026-04-30 12:12 42.61537 17.42827 33125 ft 508 kts 125°
2026-04-30 12:13 42.57800 17.50992 33117 ft 509 kts 125°
2026-04-30 12:13 42.54042 17.59137 33125 ft 509 kts 127°
2026-04-30 12:14 42.49893 17.66882 33118 ft 507 kts 131°
2026-04-30 12:14 42.45571 17.74440 33113 ft 508 kts 132°
2026-04-30 12:15 42.41295 17.81980 33090 ft 508 kts 131°
2026-04-30 12:15 42.37026 17.89604 33100 ft 509 kts 131°
2026-04-30 12:16 42.32761 17.97238 33113 ft 509 kts 131°
2026-04-30 12:16 42.28491 18.04855 33103 ft 509 kts 131°
2026-04-30 12:17 42.22064 18.16275 33104 ft 509 kts 131°
2026-04-30 12:17 42.17772 18.23873 33106 ft 509 kts 131°
2026-04-30 12:18 42.13480 18.31457 33075 ft 508 kts 131°
2026-04-30 12:18 42.09198 18.39003 33100 ft 506 kts 131°
2026-04-30 12:19 42.04926 18.46514 33114 ft 505 kts 132°
2026-04-30 12:19 42.00649 18.54000 33105 ft 504 kts 133°
2026-04-30 12:20 41.96257 18.61310 33111 ft 502 kts 134°
2026-04-30 12:20 41.91814 18.68524 33107 ft 501 kts 134°
2026-04-30 12:21 41.87383 18.75730 33116 ft 500 kts 134°
2026-04-30 12:21 41.82968 18.82939 33096 ft 499 kts 134°
2026-04-30 12:22 41.78598 18.90071 33098 ft 497 kts 134°
2026-04-30 12:22 41.74208 18.97222 33100 ft 496 kts 134°
2026-04-30 12:23 41.69820 19.04347 33097 ft 495 kts 134°
2026-04-30 12:23 41.65432 19.11455 33102 ft 495 kts 134°
2026-04-30 12:24 41.61042 19.18549 33096 ft 495 kts 134°
2026-04-30 12:24 41.56650 19.25630 33103 ft 494 kts 134°
2026-04-30 12:25 41.52261 19.32691 33082 ft 494 kts 134°
2026-04-30 12:25 41.47871 19.39736 33088 ft 493 kts 134°
2026-04-30 12:26 41.43480 19.46765 33112 ft 495 kts 134°
2026-04-30 12:26 41.39054 19.53834 33096 ft 497 kts 134°
2026-04-30 12:27 41.34622 19.60897 33096 ft 497 kts 134°
2026-04-30 12:27 41.30193 19.67941 33027 ft 496 kts 133°
2026-04-30 12:28 41.25770 19.74959 33069 ft 495 kts 134°
2026-04-30 12:28 41.21340 19.81961 33092 ft 496 kts 134°
2026-04-30 12:29 41.16894 19.88982 33079 ft 497 kts 134°
2026-04-30 12:29 41.12443 19.95997 33079 ft 496 kts 134°
2026-04-30 12:30 41.08003 20.02978 33063 ft 494 kts 134°
2026-04-30 12:30 41.03592 20.09897 33075 ft 490 kts 134°
2026-04-30 12:31 40.99220 20.16736 33066 ft 488 kts 134°
2026-04-30 12:31 40.94839 20.23574 33066 ft 486 kts 134°
2026-04-30 12:32 40.90464 20.30387 33082 ft 487 kts 134°
2026-04-30 12:32 40.86064 20.37222 33061 ft 488 kts 134°
2026-04-30 12:33 40.81652 20.44062 33068 ft 490 kts 134°
2026-04-30 12:33 40.77228 20.50906 33061 ft 491 kts 134°
2026-04-30 12:34 40.72783 20.57766 33034 ft 492 kts 134°
2026-04-30 12:34 40.68339 20.64614 33047 ft 491 kts 134°
2026-04-30 12:35 40.63895 20.71443 33049 ft 490 kts 134°
2026-04-30 12:35 40.59455 20.78252 33042 ft 490 kts 134°
2026-04-30 12:36 40.55018 20.85041 33046 ft 489 kts 134°
2026-04-30 12:36 40.50590 20.91804 33033 ft 487 kts 134°
2026-04-30 12:37 40.46229 20.98519 33034 ft 486 kts 132°
2026-04-30 12:37 40.41997 21.05482 33025 ft 484 kts 131°
2026-04-30 12:38 40.37871 21.12371 33013 ft 482 kts 131°
2026-04-30 12:38 40.33711 21.19252 33031 ft 480 kts 131°
2026-04-30 12:39 40.29549 21.26076 33022 ft 479 kts 132°
2026-04-30 12:39 40.25385 21.32874 33015 ft 478 kts 132°
2026-04-30 12:40 40.21215 21.39664 33019 ft 480 kts 132°
2026-04-30 12:40 40.17019 21.46485 33000 ft 483 kts 132°
2026-04-30 12:41 40.12795 21.53339 33009 ft 484 kts 131°
2026-04-30 12:41 40.08570 21.60180 32979 ft 482 kts 131°
2026-04-30 12:42 40.04376 21.66959 32993 ft 479 kts 132°
2026-04-30 12:42 40.00200 21.73692 32998 ft 476 kts 132°
2026-04-30 12:43 39.96034 21.80392 32991 ft 476 kts 132°
2026-04-30 12:43 39.91874 21.87068 32969 ft 473 kts 132°
2026-04-30 12:44 39.88434 21.92580 32997 ft 472 kts 132°
2026-04-30 12:44 39.83621 22.00274 32967 ft 470 kts 132°
2026-04-30 12:45 39.80163 22.05789 32986 ft 470 kts 132°
2026-04-30 12:45 39.76029 22.12371 32990 ft 470 kts 132°
2026-04-30 12:46 39.71881 22.18961 32987 ft 471 kts 132°
2026-04-30 12:46 39.67720 22.25557 32973 ft 472 kts 132°
2026-04-30 12:47 39.63583 22.32103 32972 ft 472 kts 132°
2026-04-30 12:47 39.59407 22.38697 32980 ft 473 kts 132°
2026-04-30 12:48 39.55222 22.45291 32982 ft 474 kts 132°
2026-04-30 12:48 39.51031 22.51880 32976 ft 474 kts 132°
2026-04-30 12:49 39.46843 22.58451 32983 ft 473 kts 132°
2026-04-30 12:49 39.42649 22.65018 32991 ft 473 kts 133°
2026-04-30 12:50 39.38457 22.71567 32983 ft 472 kts 133°
2026-04-30 12:50 39.34265 22.78104 33021 ft 472 kts 133°
2026-04-30 12:51 39.30070 22.84632 33020 ft 472 kts 133°
2026-04-30 12:51 39.25876 22.91142 33020 ft 472 kts 133°
2026-04-30 12:52 39.21678 22.97648 33007 ft 471 kts 133°
2026-04-30 12:52 39.17480 23.04140 33019 ft 471 kts 133°
2026-04-30 12:53 39.13308 23.10578 33025 ft 471 kts 133°
2026-04-30 12:53 39.09100 23.17058 33028 ft 472 kts 133°
2026-04-30 12:54 39.04887 23.23532 33021 ft 472 kts 133°
2026-04-30 12:54 39.00664 23.30012 33013 ft 472 kts 133°
2026-04-30 12:55 38.96445 23.36470 33017 ft 472 kts 133°
2026-04-30 12:55 38.92221 23.42922 33021 ft 472 kts 133°
2026-04-30 12:56 38.87998 23.49361 33013 ft 471 kts 133°
2026-04-30 12:56 38.83773 23.55788 33019 ft 471 kts 133°
2026-04-30 12:57 38.79544 23.62209 33015 ft 471 kts 134°
2026-04-30 12:57 38.75315 23.68618 33013 ft 471 kts 134°
2026-04-30 12:58 38.71075 23.75029 33003 ft 472 kts 134°
2026-04-30 12:58 38.66834 23.81431 33012 ft 471 kts 134°